Regional Weather Roundup
Issued by NWS Midland/Odessa, TX

Home | Current Version | Previous Version | Text Only | Print | Product List | Glossary On
Versions: 1 2 3 4 5 6 7 8 9 10 11 12 13 14 15 16 17 18 19 20 21 22 23 24 25 26 27 28 29 30 31 32 33 34 35 36 37 38 39 40 41 42 43 44 45 46 47 48 49 50
000
ASUS44 KMAF 211710
RWRMAF
MIDLAND AREA WEATHER ROUNDUP
NATIONAL WEATHER SERVICE MIDLAND TX
1100 AM CST TUE FEB 21 2017

...IN SOUTHWEST TEXAS AND SOUTHEAST NEW MEXICO...

CITY           SKY/WX    TMP DP  RH WIND       PRES   REMARKS
ALPINE         SUNNY     65  26  22 SW13      30.33S
ANDREWS        FAIR      67  31  26 W8        30.17S
ARTESIA        SUNNY     68  34  28 CALM      30.17F
BIG SPRING     SUNNY     59  32  35 SW6       30.18S
CARLSBAD       SUNNY     68  30  24 S7        30.16F
DRYDEN           N/A     72  30  21 SW16      30.17F
FORT STOCKTON  SUNNY     72  26  18 W13       30.20S
GUAD PASS      SUNNY     55  31  39 W23       30.30F
HOBBS          SUNNY     66  28  24 W15G21    30.18S
MARFA          SUNNY     64  24  21 W21       30.32R
MIDLAND AIRPK  SUNNY     66  31  26 W5        30.17F
MIDLAND INTL   SUNNY     70  30  22 W6        30.16F
ODESSA         SUNNY     71  27  19 W8        30.17F
PECOS          SUNNY     71  30  21 W14       30.18F
PRESIDIO       FAIR      62  29  28 S5        30.32S
SEMINOLE       SUNNY     67  32  27 W13G23    30.17S
SNYDER         SUNNY     64  25  23 S6        30.14S
WINK           SUNNY     67  29  24 W9        30.17F
$$
...OTHER STATIONS IN TEXAS...

CITY           SKY/WX    TMP DP  RH WIND       PRES   REMARKS
ABILENE        SUNNY     64  36  35 NW8       30.11R
AMARILLO       SUNNY     63  18  17 S10       30.15R
AUSTIN         SUNNY     70  42  36 NW8G20    30.03R
BROWNSVILLE    SUNNY     77  53  43 W12       30.09S
CORPUS CHRISTI SUNNY     73  50  44 NW18      30.06S
DALLAS FTW     SUNNY     65  49  56 NW10      29.99R
DEL RIO        SUNNY     71  39  31 W10       30.14S
EL PASO        SUNNY     56  34  43 VRB5      30.32F
HOUSTON INT    PTSUNNY   64  56  75 NW8       29.96R
LUBBOCK        SUNNY     60  31  33 CALM      30.14S
SAN ANGELO     SUNNY     67  33  28 W8        30.13F
SAN ANTONIO    SUNNY     74  33  22 NW14      30.06S
WACO           SUNNY     66  49  54 N9        30.01R
WICHITA FALLS  NOT AVBL
$$
...OTHER LOCATIONS IN NEW MEXICO...

CITY           SKY/WX    TMP DP  RH WIND       PRES   REMARKS
ALAMAGORDO     SUNNY     63  32  31 NW16      30.31S
ALBUQUERQUE    SUNNY     54  33  45 N14       30.36S
CANNON AFB     SUNNY     63  25  23 CALM      30.15F
CLOVIS         SUNNY     63  28  27 N3        30.15S
HOLLOMAN AFB   SUNNY     61  33  34 NW17      30.34S
ROSWELL        SUNNY     73  30  20 NW21G28   30.21R
RUIDOSO        SUNNY     55  28  35 N8        30.36S
SANTA FE       SUNNY     53  31  42 N22G31    30.35S
TRUTH OR CONSE SUNNY     56  33  42 E7        30.35R
TUCUMCARI      SUNNY     58  23  26 CALM      30.14R
$$




USA.gov is the U.S. government's official web portal to all federal, state and local government web resources and services.